{"data":{"norad_id":64075,"epoch":"2026-09-20T07:06:30.291552Z","epoch_age_seconds":161149,"freshness":"FRESH","line1":"1 64075U 25107M   26263.29618393  .00168649  00000+0  12847-2 0  9994","line2":"2 64075  42.9994   5.2926 0004580 294.3570  65.6820 15.70953288 77900","mean_motion":15.70953288,"eccentricity":0.000458,"inclination_deg":42.9994,"raan_deg":5.2926,"arg_perigee_deg":294.357,"mean_anomaly_deg":65.682,"bstar":0.0012847,"rev_number":7790,"period_min":91.664087723021,"perigee_km":353.08696952773,"apogee_km":359.2555959147,"semimajor_km":6734.3082827212,"source":"CELESTRAK","updated_at":"2026-09-21T09:00:35.193838Z"}}